User: anonymous   Login
Location: Unspecified
(0.0000°N, 0.0000°E)
Time: 19:10:27
(UTC+00:00)
Language:

STARLINK-4549 - Orbit

View from above orbital plane
View from above orbital plane
View from above satellite
View from above satellite

Ground track
Ground track

The orbit is defined by the following mean orbital elements,

1 53433U          26145.19574514 +.00000000 +00000-0 +62580-4 0 00000
2 53433  53.2137 120.6678 0001155  76.3609 283.7512 15.08842175    03
Epoch (UTC): 25 May 2026 04:41:52
Eccentricity: 0.0001155
inclination: 53.2137°
perigee height: 539 km
apogee height: 541 km
right ascension of ascending node: 120.6678°
argument of perigee: 76.3609°
revolutions per day: 15.08842175
mean anomaly at epoch: 283.7512°

The dashed part of the orbit path shows where the satellite is in the earth's shadow,  

DLR